Flag for Japan Weather past 2 weeks in Sendai, Japan

Now
43 °F

Fog.


Feels Like: 43 °F
Forecast: 42 / 53 °F
Wind: 2 mph from North

Location: Sendai Airport

Current Time: Apr 1, 2015 at 2:36:05 AM

Latest Report: Mar 31, 2015 at 9:00 PM


Visibility: 0 mi

Pressure: 29.95 "Hg

Humidity: 100%

Dew point: 43 °F

Location of SendaiLocation

Historic Weather in Sendai — Graph

°F

Sendai temperature yesterday

Maximum temperature yesterday: 52 °F (at 11:00 AM)
Minimum temperature yesterday: 43 °F (at 9:00 PM)
Average temperature yesterday: 48 °F

Past Weeks' High & Low Weather Summary

 TemperatureHumidityPressure
High64 °F (Mar 27, 1:03 PM)100% (Mar 17, 4:00 PM)30.42 "Hg (Mar 17, 4:00 PM)
Low32 °F (Mar 27, 6:00 AM)12% (Mar 27, 4:00 PM)29.74 "Hg (Mar 19, 1:00 PM)
Average48 °F64%30.03 "Hg
* Reported Mar 16 9:00 PM — Mar 31 9:00 PM, Sendai, Weather by CustomWeather, © 2015

Note: Actual official high and low records may vary slightly from our data, if they occured in-between our weather recording intervals... More about our weather records

Advertising

Sendai weather history for previous 24 hours

 ConditionsComfort  
Time TempWeatherWind HumidityBarometerVisibility
9:00 PM
Tue, Mar 31
43 °FFog.2 mph100%29.95 "Hg1 mi
8:00 PM45 °FFog.3 mph100%29.95 "Hg1 mi
7:00 PM46 °FFog.2 mph100%29.95 "Hg1 mi
6:49 PM46 °FFog.3 mph93%29.95 "Hg1 mi
6:00 PM46 °FFog.3 mph100%29.95 "Hg1 mi
5:47 PM46 °FFog.3 mph100%29.95 "Hg1 mi
5:02 PM48 °FFog.3 mph94%29.95 "Hg1 mi
5:00 PM48 °FFog.3 mph94%29.95 "Hg1 mi
4:00 PM48 °FFog.6 mph94%29.95 "Hg1 mi
3:45 PM50 °FFog.6 mph88%29.95 "Hg2 mi
3:00 PM52 °FPartly sunny.7 mph82%29.95 "Hg4 mi
2:00 PM52 °FPartly sunny.8 mph77%29.98 "Hg5 mi
1:00 PM52 °FScattered clouds.7 mph77%30.01 "Hg5 mi
12:00 PM50 °FPartly sunny.8 mph82%30.04 "Hg4 mi
11:00 AM52 °FPartly sunny.9 mph77%30.07 "Hg4 mi
10:00 AM50 °FPartly sunny.9 mph76%30.09 "Hg4 mi
9:00 AM50 °FPartly sunny.5 mph76%30.09 "Hg4 mi
8:00 AM50 °FPartly sunny.2 mph76%30.12 "Hg4 mi
7:00 AM46 °FBroken clouds.2 mph87%30.12 "Hg4 mi
6:00 AM46 °FFog.3 mph87%30.15 "Hg3 mi
Weather by CustomWeather, © 2015

See weather overviewHow to use our weather pages